Location: Unspecified
(0.0000°N, 0.0000°E)
Time: 23:20:45
(UTC+00:00)

ATLAS 5 CENTAUR R/B DEB - Pass Details

Date: 06 May 2025
Orbit: 8950 x 34203 km, 12.6° (Epoch: 13 May)

Event Time Altitude Azimuth Distance (km) Brightness Sun altitude
Rises 11:04:09 0° 257° (WSW) 13,947 ? 68.9°
Reaches altitude 10° 11:12:39 10° 255° (WSW) 13,046 ? 70.1°
Maximum altitude 20:04:02 71° 40° (NE) 29,727 ? -30.4°
Drops below altitude 10° 23:18:14 10° 95° (E) 14,896 ? -70.7°
Sets 23:27:58 0° 97° (E) 15,136 ? -71.8°
